Location: Home
(42.5358°N, 72.7383°W)
Time: 16:41:11
(UTC-05:00)

A-11 Canister half - Pass Details

Date: 03 December 2021
Orbit: 1516 x 1684 km, 47.2° (Epoch: 18 January)

Event Time Altitude Azimuth Distance (km) Brightness Sun altitude
Rises 14:48:34 0° 293° (WNW) 4,926 11.9 12.2°
Reaches altitude 10° 14:52:26 10° 282° (WNW) 3,944 11.7 11.7°
Maximum altitude 15:00:05 25° 232° (SW) 2,911 12.4 10.7°
Drops below altitude 10° 15:07:44 10° 182° (S) 3,918 11.9 9.6°
Sets 15:11:37 0° 170° (S) 4,887 12.1 9.1°
